sat.trackr.live / text

‹ back to catalog

STARLINK-4433

NORAD 53478 · 2022-099P

PAYLOAD ACTIVE UNKNOWN

§ Identity

Operator
Country
US
Launch date
2022-08-12
Launch site
AFWTR
Launch vehicle
Mass (kg)
RCS (m²)

Purposes: comms

External: N2YO · Heavens-Above · Gunter

§ Orbital elements

Epoch: 2026-09-20T04:00:03.000096Z

Period
94.78 min
Inclination
97.2847°
Eccentricity
0.0002496
Mean motion
15.19303277 rev/d
Perigee alt
506.2 km
Apogee alt
509.7 km
Semi-major
6,886.1 km
B*
3.4413e-3
RAAN
16.9801°
Arg perigee
81.9896°
Mean anomaly
86.9498°
Rev number
576

§ Raw data

STARLINK-44331 53478U 22099P   26263.16670139  .00073246  00000+0  34413-2 0  99992 53478  97.2847  16.9801 0002496  81.9896  86.9498 15.19303277  5763

JSON: /api/v1/satellites/53478 · /tle

For live sub-satellite position, see the globe view (requires WebGL).

§ Visibility from observer

Set your observer location to see the next 7 days of passes ≥ 10°. The values pass through the URL so the page stays shareable.

No JS? Fill the form by hand. The geolocation button needs JavaScript.